ニート彗星

C/2001 O2 ( NEAT )

English version
Home page
Updated on September 27, 2014

---------------------------------------------------------------------

・ プロフィール

発見日 2001年7月25日
発見光度 19.3等
発見者 Near-Earth-Asteroid Tracking Team (Jet Propulsion Laboratory)

・ 軌道要素

T 1999 Oct. 18.0518 TT                                  Marsden
q   4.838721             (2000.0)            P               Q
                   Peri.  281.1810      +0.1752910      +0.8362063
                   Node   328.6853      +0.3122131      -0.5477896
e   1.0            Incl.   91.0821      -0.9337002      -0.0261836
>From 44 observations 2001 July 25-Sept. 11.

・ 星図

・ 光度変化

        m1 = 6.0 + 5 logΔ + 10.0 log r

---------------------------------------------------------------------

軌道要素は Dr. Brian G. Marsden の計算によるもので、 M.P.E.C. 2001-R53 に掲載されたものです。
星図は StellaNavigator Ver.2.0 for Windows (アストロアーツ 編著 / アスキー出版局刊) で作成したものです。
光度グラフはComet for Windowsで作成したものです。

---------------------------------------------------------------------

Copyright(C) Seiichi Yoshida (comet@aerith.net). All rights reserved.